When you browse on this site, cookies collect data to enhance your experience and personalize the content and advertising you see.
Visit our Privacy Policy to learn more. By continuing to use the site, you agree to this use of cookies and data.
  • In Deutschland
  • Länderverzeichnis
  • Für 7 Tage
  • Wassertemperatur
  • Wetterkarte
  • Widgets
  • user-avatar
    Anmelden

    Stündliche Wetter Blagoewgrad

    Heute, 22 November, Freitag

    Zeit Temperatur Niederschläge Wind Luftdruck Luftfeuchtigkeit
    00:00 +11°C° 0.2 mm 1 m/S 719 mmHg 93%
    01:00 +11°C° 0.2 mm 1 m/S 718 mmHg 93%
    02:00 +11°C° 0 mm 1 m/S 719 mmHg 92%
    03:00 +11°C° 1.8 mm 1 m/S 719 mmHg 93%
    04:00 +11°C° 1.8 mm 1 m/S 718 mmHg 94%
    05:00 +11°C° 1.8 mm 1 m/S 718 mmHg 95%
    06:00 +11°C° 2.7 mm 1 m/S 718 mmHg 96%
    07:00 +11°C° 2.7 mm 1 m/S 719 mmHg 97%
    08:00 +11°C° 0 mm 1 m/S 719 mmHg 96%
    09:00 +11°C° 2.6 mm 1 m/S 720 mmHg 95%
    10:00 +11°C° 2.6 mm 1 m/S 720 mmHg 95%
    11:00 +11°C° 2.6 mm 1 m/S 720 mmHg 94%
    12:00 +11°C° 1.2 mm 1 m/S 720 mmHg 92%
    13:00 +11°C° 1.2 mm 1 m/S 720 mmHg 91%
    14:00 +10°C° 0 mm 2 m/S 720 mmHg 89%
    15:00 +11°C° 0.1 mm 1 m/S 720 mmHg 90%
    16:00 +11°C° 0.1 mm 1 m/S 720 mmHg 91%
    17:00 +10°C° 0.1 mm 1 m/S 720 mmHg 92%
    18:00 +10°C° 0 mm 1 m/S 721 mmHg 92%
    19:00 +10°C° 0 mm 1 m/S 721 mmHg 93%
    20:00 +9°C° 0 mm 1 m/S 722 mmHg 93%
    21:00 +9°C° 0 mm 1 m/S 722 mmHg 93%
    22:00 +9°C° 0 mm 1 m/S 722 mmHg 93%
    23:00 +9°C° 0 mm 1 m/S 722 mmHg 93%

    Morgen, 23 November, Samstag

    Zeit Temperatur Niederschläge Wind Luftdruck Luftfeuchtigkeit
    00:00 +9°C° 0 mm 1 m/S 722 mmHg 93%
    01:00 +9°C° 0 mm 1 m/S 722 mmHg 93%
    02:00 +9°C° 0 mm 1 m/S 722 mmHg 92%
    03:00 +8°C° 0 mm 1 m/S 722 mmHg 92%
    04:00 +8°C° 0 mm 1 m/S 722 mmHg 92%
    05:00 +8°C° 0 mm 1 m/S 722 mmHg 92%
    06:00 +8°C° 0 mm 1 m/S 722 mmHg 92%
    07:00 +7°C° 0 mm 0 m/S 722 mmHg 91%
    08:00 +7°C° 0 mm 0 m/S 722 mmHg 91%
    09:00 +8°C° 0 mm 0 m/S 722 mmHg 86%
    10:00 +10°C° 0 mm 1 m/S 723 mmHg 82%
    11:00 +12°C° 0 mm 1 m/S 723 mmHg 78%
    12:00 +12°C° 0 mm 1 m/S 722 mmHg 76%
    13:00 +13°C° 0 mm 1 m/S 722 mmHg 75%
    14:00 +14°C° 0 mm 1 m/S 722 mmHg 73%
    15:00 +13°C° 0 mm 1 m/S 721 mmHg 77%
    16:00 +12°C° 0 mm 1 m/S 721 mmHg 82%
    17:00 +11°C° 0 mm 1 m/S 721 mmHg 86%
    18:00 +10°C° 0 mm 1 m/S 721 mmHg 87%
    19:00 +10°C° 0 mm 1 m/S 722 mmHg 88%
    20:00 +9°C° 0 mm 1 m/S 722 mmHg 89%
    21:00 +9°C° 0 mm 1 m/S 722 mmHg 90%
    22:00 +9°C° 0 mm 1 m/S 722 mmHg 90%
    23:00 +9°C° 0 mm 1 m/S 722 mmHg 91%

    übermorgen, 24 November, Sonntag

    Zeit Temperatur Niederschläge Wind Luftdruck Luftfeuchtigkeit
    00:00 +8°C° 0 mm 1 m/S 722 mmHg 91%
    01:00 +8°C° 0 mm 1 m/S 722 mmHg 91%
    02:00 +8°C° 0 mm 1 m/S 722 mmHg 91%
    03:00 +8°C° 0 mm 1 m/S 722 mmHg 91%
    04:00 +8°C° 0 mm 1 m/S 721 mmHg 91%
    05:00 +8°C° 0 mm 1 m/S 721 mmHg 91%
    06:00 +8°C° 0 mm 1 m/S 721 mmHg 91%
    07:00 +8°C° 0 mm 1 m/S 722 mmHg 91%
    08:00 +8°C° 0 mm 1 m/S 722 mmHg 90%
    09:00 +9°C° 0 mm 1 m/S 722 mmHg 86%
    10:00 +11°C° 0 mm 1 m/S 722 mmHg 82%
    11:00 +12°C° 0 mm 1 m/S 722 mmHg 78%
    12:00 +13°C° 0 mm 1 m/S 721 mmHg 76%
    13:00 +13°C° 0 mm 1 m/S 721 mmHg 75%
    14:00 +14°C° 0 mm 2 m/S 720 mmHg 73%
    15:00 +13°C° 0 mm 1 m/S 720 mmHg 78%
    16:00 +12°C° 0 mm 1 m/S 720 mmHg 83%
    17:00 +11°C° 0 mm 1 m/S 719 mmHg 87%
    18:00 +10°C° 0 mm 1 m/S 719 mmHg 87%
    19:00 +9°C° 0 mm 1 m/S 719 mmHg 87%
    20:00 +9°C° 0 mm 1 m/S 719 mmHg 87%
    21:00 +9°C° 0 mm 1 m/S 719 mmHg 87%
    22:00 +9°C° 0 mm 1 m/S 719 mmHg 86%
    23:00 +9°C° 0 mm 1 m/S 718 mmHg 85%

    25 November, Montag

    Zeit Temperatur Niederschläge Wind Luftdruck Luftfeuchtigkeit
    00:00 +9°C° 0 mm 1 m/S 718 mmHg 86%
    01:00 +9°C° 0 mm 1 m/S 718 mmHg 86%
    02:00 +10°C° 0 mm 1 m/S 717 mmHg 86%
    03:00 +10°C° 0 mm 1 m/S 717 mmHg 87%
    04:00 +10°C° 0 mm 1 m/S 716 mmHg 88%
    05:00 +9°C° 0 mm 1 m/S 716 mmHg 88%
    06:00 +8°C° 0.1 mm 2 m/S 716 mmHg 89%
    07:00 +8°C° 0.1 mm 2 m/S 715 mmHg 90%
    08:00 +8°C° 0.1 mm 2 m/S 715 mmHg 91%
    09:00 +9°C° 0 mm 2 m/S 715 mmHg 88%
    10:00 +10°C° 0 mm 2 m/S 715 mmHg 85%
    11:00 +13°C° 0 mm 2 m/S 714 mmHg 81%
    12:00 +13°C° 0.1 mm 2 m/S 714 mmHg 80%
    13:00 +13°C° 0.1 mm 2 m/S 714 mmHg 79%
    14:00 +14°C° 0.1 mm 2 m/S 714 mmHg 78%
    15:00 +13°C° 0.2 mm 2 m/S 714 mmHg 81%
    16:00 +13°C° 0.2 mm 2 m/S 713 mmHg 84%
    17:00 +12°C° 0.2 mm 2 m/S 713 mmHg 87%
    18:00 +12°C° 0.4 mm 1 m/S 713 mmHg 89%
    19:00 +11°C° 0.4 mm 1 m/S 713 mmHg 90%
    20:00 +11°C° 0.4 mm 1 m/S 714 mmHg 92%
    21:00 +11°C° 0.7 mm 1 m/S 714 mmHg 93%
    22:00 +11°C° 0.7 mm 1 m/S 714 mmHg 94%
    23:00 +11°C° 0.7 mm 1 m/S 714 mmHg 95%

    26 November, Dienstag

    Zeit Temperatur Niederschläge Wind Luftdruck Luftfeuchtigkeit
    00:00 +11°C° 0.4 mm 1 m/S 714 mmHg 95%
    01:00 +11°C° 0.4 mm 1 m/S 713 mmHg 94%
    02:00 +11°C° 0.4 mm 1 m/S 713 mmHg 94%
    03:00 +11°C° 0.1 mm 1 m/S 713 mmHg 94%
    04:00 +10°C° 0.1 mm 1 m/S 713 mmHg 94%
    05:00 +10°C° 0.1 mm 1 m/S 713 mmHg 94%
    06:00 +10°C° 0.1 mm 1 m/S 714 mmHg 94%
    07:00 +10°C° 0.1 mm 1 m/S 714 mmHg 94%
    08:00 +10°C° 0.1 mm 1 m/S 714 mmHg 94%
    09:00 +10°C° 0 mm 2 m/S 714 mmHg 91%
    10:00 +10°C° 0 mm 2 m/S 715 mmHg 88%
    11:00 +12°C° 0 mm 2 m/S 715 mmHg 84%
    12:00 +12°C° 0 mm 2 m/S 715 mmHg 82%
    13:00 +13°C° 0 mm 2 m/S 715 mmHg 80%
    14:00 +13°C° 0 mm 2 m/S 715 mmHg 77%
    15:00 +12°C° 0 mm 2 m/S 715 mmHg 80%
    16:00 +12°C° 0 mm 2 m/S 715 mmHg 83%
    17:00 +10°C° 0 mm 2 m/S 715 mmHg 85%
    18:00 +10°C° 0 mm 1 m/S 715 mmHg 87%
    19:00 +10°C° 0 mm 1 m/S 716 mmHg 88%
    20:00 +9°C° 0 mm 1 m/S 716 mmHg 90%
    21:00 +9°C° 0 mm 1 m/S 716 mmHg 90%
    22:00 +8°C° 0 mm 1 m/S 716 mmHg 90%
    23:00 +7°C° 0 mm 0 m/S 716 mmHg 90%

    27 November, Mittwoch

    Zeit Temperatur Niederschläge Wind Luftdruck Luftfeuchtigkeit
    00:00 +7°C° 0 mm 0 m/S 716 mmHg 90%
    01:00 +7°C° 0 mm 0 m/S 716 mmHg 90%
    02:00 +6°C° 0 mm 0 m/S 716 mmHg 89%
    03:00 +6°C° 0 mm 0 m/S 716 mmHg 89%
    04:00 +6°C° 0 mm 0 m/S 716 mmHg 89%
    05:00 +6°C° 0 mm 0 m/S 716 mmHg 89%
    06:00 +6°C° 0 mm 0 m/S 716 mmHg 89%
    07:00 +6°C° 0 mm 0 m/S 717 mmHg 88%
    08:00 +6°C° 0 mm 0 m/S 717 mmHg 87%
    09:00 +9°C° 0 mm 1 m/S 717 mmHg 82%
    10:00 +11°C° 0 mm 1 m/S 717 mmHg 76%
    11:00 +13°C° 0 mm 1 m/S 717 mmHg 71%
    12:00 +13°C° 0 mm 1 m/S 717 mmHg 68%
    13:00 +14°C° 0 mm 2 m/S 716 mmHg 65%
    14:00 +15°C° 0 mm 2 m/S 716 mmHg 63%
    15:00 +13°C° 0 mm 2 m/S 716 mmHg 69%
    16:00 +12°C° 0 mm 2 m/S 716 mmHg 75%
    17:00 +11°C° 0 mm 1 m/S 716 mmHg 82%
    18:00 +10°C° 0 mm 1 m/S 716 mmHg 83%
    19:00 +10°C° 0 mm 1 m/S 716 mmHg 84%
    20:00 +9°C° 0 mm 1 m/S 716 mmHg 86%
    21:00 +9°C° 0 mm 1 m/S 716 mmHg 86%
    22:00 +9°C° 0 mm 1 m/S 716 mmHg 87%
    23:00 +9°C° 0 mm 1 m/S 716 mmHg 88%
    Mehr zeigen